www.pogodaiklimat.ru

Погода и климат >> Архив погоды >> Мексика >> Acapulco


АРХИВ ПОГОДЫ в Acapulco

Время (UTC), дата Ветер
(напр.,м/с)
 
Видим.   Явления Облачность Т
(С)
Тd
(С)
f
(%)
Тe
(С)
Тes
(С)
Комфортность P
(гПа)
Po
(гПа)
Тmin
(С)
Tmax
(С)
R
(мм)
R24
(мм)
S
(см)
06 8.08 СВ 2 20 км 6/6 600 м
[Cu Sc]
+27.2 +25.8 92 +40 +40 очень
душно
1013.4 1013.1 +25.2 +35.0
09 8.08 СЗ 2 10 км {морось} 10/6 800 м
[Sc As op]
+24.9 +24.8 99 +35 +35 очень
душно
1013.7 1013.4 0.5
12 8.08 СЗ 1 15 км {морось} 9/5 600 м
[Sc Ac und]
+24.8 +23.5 92 +33 +33 очень
душно
1013.0 1012.6 0.5
15 8.08 СЗ 2 20 км 6/3 900 м
[Cu hum Ac trans]
+29.2 +25.0 78 +42 +46 опасность
перегрева
1012.0 1011.6
18 8.08 ЮЗ 3 20 км 6/3 900 м
[Cu med, cong Ac trans]
+32.4 +24.5 63 +45 +54 опасность
перегрева
1012.7 1012.2 +24.7 +33.5
21 8.08 ЮЗ 3 20 км 4/4 900 м
[Cu med, cong]
+33.0 +25.5 65 +48 +55 опасность
перегрева
1011.6 1011.1
00 9.08 З 2 20 км 9/9 600 м
[Cu Sc]
+30.2 +25.4 76 +44 +44 опасность
перегрева
1010.6 1010.2 +24.7 +34.0
03 9.08 ЮЗ 2 10 км 6/6 750 м
[Cu Sc]
+29.0 +24.9 79 +42 +42 опасность
перегрева
1012.3 1011.8
06 9.08 Ю 2 10 км 6/6 600 м
[Cu Sc]
+27.6 +24.8 85 +39 +39 очень
душно
1013.0 1012.5 +24.7 +34.0
12 9.08 ЮВ 2 10 км 5/5 660 м
[Cu Sc]
+26.0 +24.1 89 +36 +36 очень
душно
1013.0 1012.6 +23.8 +34.0
15 9.08 СВ 1 20 км 9/6 840 м
[Cu Sc Ac und]
+28.8 +25.1 80 +42 +43 опасность
перегрева
1012.3 1011.9
18 9.08 ЮЗ 4 20 км 5/1 900 м
[Cu med, cong Cs]
+33.4 +24.7 60 +46 +58 опасность
перегрева
1012.0 1011.7 +23.8 +34.1
21 9.08 ЮЗ 4 20 км 9/3 870 м
[Cu med, cong Cs]
+32.4 +25.6 67 +47 +53 опасность
перегрева
1010.6 1010.3
00 10.08 З 4 20 км 8/3 600 м
[Cu med, cong Cs]
+31.4 +25.1 69 +45 +45 опасность
перегрева
1010.9 1010.5 +23.8 +34.2
03 10.08 З 2 10 км 3/1 870 м
[Cu med, cong Cs]
+28.8 +25.4 82 +42 +42 опасность
перегрева
1013.2 1012.8
06 10.08 С 1 10 км 5/3 600 м
[Cu hum Cs]
+27.8 +26.1 90 +42 +42 опасность
перегрева
1014.4 1014.1 +23.8 +34.2
09 10.08 СЗ 2 10 км 6/4 900 м
[Cu hum Cs]
+26.1 +23.0 83 +35 +35 очень
душно
1012.5 1012.2
12 10.08 СЗ 2 15 км 4/0 2000 м
[As trans Cs]
+24.9 +23.0 89 +33 +33 очень
душно
1012.0 1011.6 +24.2 +34.2
15 10.08 СЗ 2 20 км 1/0
[Cs]
+29.8 +24.4 73 +42 +50 опасность
перегрева
1013.0 1012.5
18 10.08 ЮЗ 3 20 км 1/1 900 м
[Cu med, cong]
+33.7 +26.3 65 +50 +66 опасность
перегрева
1012.5 1012.1 +24.2 +34.6
21 10.08 З 2 20 км 1/1 600 м
[Cu hum]
+33.3 +27.3 71 +52 +66 опасность
перегрева
1010.9 1010.5
00 11.08 З 2 20 км 3/1 600 м
[Cu hum Cs]
+33.1 +26.2 67 +49 +50 опасность
перегрева
1010.2 1009.6 +24.2 +35.0
03 11.08 З 2 15 км 1/1 900 м
[Cu hum]
+29.4 +26.4 84 +45 +45 опасность
перегрева
1011.8 1011.4
06 11.08 СВ 1 15 км 3/3 600 м
[Cu hum]
+27.7 +26.0 90 +41 +41 опасность
перегрева
1013.4 1013.2 +24.2 +35.0
09 11.08 СВ 1 10 км 4/4 900 м
[Cu hum]
+27.4 +25.7 90 +40 +40 очень
душно
1013.0 1012.6
12 11.08 СЗ 1 15 км 6/6 900 м
[Cu med, cong]
+26.4 +24.7 90 +37 +37 очень
душно
1013.0 1012.5 +25.9 +35.0
15 11.08 С 1 20 км 8/0
[Cs]
+30.2 +24.8 73 +43 +51 опасность
перегрева
1013.2 1012.7
18 11.08 ЮВ 3 20 км 4/1 900 м
[Cu med, cong Cs]
+35.2 +27.3 64 +54 +69 опасность
перегрева
1013.0 1012.6 +25.9 +36.0
21 11.08 Ю 3 20 км 5/1 900 м
[Cu med, cong Cs]
+35.7 +26.2 58 +52 +62 опасность
перегрева
1012.0 1011.6
00 12.08 Ю 2 20 км 3/1 600 м
[Cu med, cong Cs]
+33.9 +25.5 62 +49 +50 опасность
перегрева
1012.0 1011.6 +25.9 +36.6
03 12.08 З 1 10 км 3/3 900 м
[Cu med, cong]
+28.4 +25.6 85 +42 +42 опасность
перегрева
1014.1 1013.7
06 12.08 С 1 10 км 3/3 600 м
[Cu med, cong]
+27.7 +26.3 92 +42 +42 опасность
перегрева
1015.5 1015.3 +25.9 +36.6
09 12.08 В 2 10 км 3/3 900 м
[Cu med, cong]
+27.0 +25.2 90 +39 +39 очень
душно
1013.0 1012.5
12 12.08 В 2 10 км 6/6 720 м
[Cu Sc]
+25.6 +24.0 91 +35 +35 очень
душно
1012.7 1012.2 +25.0 +36.6
15 12.08 Ю 2 20 км 6/6 750 м
[Cu Sc]
+27.5 +25.4 88 +40 +43 очень
душно
1013.2 1012.9
18 12.08 ЮЗ 2 20 км 8/6 720 м
[Cu Sc Ac trans]
+33.4 +25.7 64 +48 +54 опасность
перегрева
1015.8 1015.3 +25.0 +36.5
21 12.08 З 2 10 км мгла 8/6 750 м
[Cu Sc Ac trans]
+34.2 +26.4 64 +51 +55 опасность
перегрева
1014.6 1014.1
00 13.08 З 2 10 км мгла 5/4 600 м
[Cu med, cong Ac trans]
+32.8 +24.6 62 +46 +46 опасность
перегрева
1011.6 1011.0 +25.0 +36.5
03 13.08 З 2 15 км 4/3 900 м
[Cu med, cong Ac trans]
+29.7 +24.9 75 +42 +42 опасность
перегрева
1011.3 1011.0
06 13.08 З 1 15 км 4/4 600 м
[Cu med, cong]
+29.0 +26.1 84 +44 +44 опасность
перегрева
1013.9 1013.5 +25.0 +36.5
09 13.08 З 2 10 км слабая морось {дождь} 10/10 750 м
[Cu Sc]
+23.3 +22.4 95 +32 +32 очень
душно
1015.1 1014.7
12 13.08 С 2 10 км слабая морось {дождь} 10/10 600 м
[Cu Sc]
+24.2 +23.2 94 +32 +32 очень
душно
1014.8 1014.5 13
15 13.08 СЗ 2 20 км в посл. час морось {дождь} 9/4 870 м
[Sc Ac und]
+24.8 +23.2 91 +33 +35 очень
душно
1015.6 1015.3 1
18 13.08 С 1 20 км 10/4 840 м
[Cu Sc Ac und]
+27.7 +24.4 82 +39 +43 очень
душно
1014.8 1014.4 +22.4 +28.3
21 13.08 Ю 3 20 км 8/3 900 м
[Cu med, cong Ac trans]
+32.3 +25.3 67 +47 +52 опасность
перегрева
1013.0 1012.7
00 14.08 З 1 20 км 5/3 600 м
[Cu hum Ac trans]
+30.3 +25.1 74 +44 +45 опасность
перегрева
1010.4 1010.1 +22.4 +33.4
03 14.08 З 1 10 км 3/1 900 м
[Cu hum Ac trans]
+26.2 +24.2 89 +36 +36 очень
душно
1011.8 1011.3
06 14.08 В 1 10 км 1/1 600 м
[Cu hum]
+25.4 +24.5 95 +36 +36 очень
душно
1014.4 1013.8 +22.4 +33.4
09 14.08 СЗ 2 10 км 4/4 900 м
[Cu hum]
+25.0 +23.6 92 +34 +34 очень
душно
1013.9 1013.4
12 14.08 С 2 10 км слабый дождь {морось} 10/10 600 м
[Cu Sc]
+23.2 +22.0 93 +32 +32 очень
душно
1014.6 1014.1 1
15 14.08 СВ 2 20 км 5/4 840 м
[Sc Ac und]
+28.8 +23.9 75 +40 +44 очень
душно
1012.7 1012.3
18 14.08 ЮВ 3 20 км 5/1 900 м
[Cu med, cong Ac trans Cs]
+32.9 +25.2 64 +47 +60 опасность
перегрева
1013.9 1013.5 +22.9 +33.5
21 14.08 ЮВ 4 20 км 3/1 900 м
[Cu med, cong Cs]
+33.1 +24.5 61 +46 +55 опасность
перегрева
1011.6 1011.2
00 15.08 ЮВ 2 20 км 3/1 600 м
[Cu med, cong Ac trans]
+33.4 +25.0 62 +47 +48 опасность
перегрева
1011.3 1010.8 +22.9 +34.7
03 15.08 З 1 10 км 3/1 900 м
[Cu hum Cs]
+27.4 +24.4 84 +39 +39 очень
душно
1012.3 1012.0

 

Местоположение метеостанции Acapulco (Мексика): широта 16.83 долгота -99.93 высота над уровнем моря 3 м.

В архиве по умолчанию представлена погода в Acapulco за последнюю неделю. Архивные данные за месяц целиком и за предыдущие месяцы, начиная с января 2011 года, Вы можете получить, выбрав интересующий диапазон дат из раскрывающегося списка и нажав кнопку "Ввод!".


*Определитесь, кто Вы:
робот инопланетянин человек

Внимание! Время в таблицах - всемирное. Для получения местного времени необходимо прибавить поправку, которая в Acapulco равна -6 ч.

Смотрите также архив погоды в соседних городах и на ближайших метеорологических станциях:

Погода в Chilpancingo (Мексика) (92 км)
Погода в Zacatepec (Мексика) (223 км)
Погода в Cuernavaca (Мексика) (240 км)
Погода в Huajuapan De Leon (Мексика) (253 км)
Погода в Toluca (Мексика) (274 км)
Погода в Institute of Geography (Мексика) (288 км)
Погода в Mexico City (Мексика) (297 км)
Погода в Puebla (Мексика) (310 км)
Погода в Tlaxcala Airport (Мексика) (329 км)
Погода в Tlaxcala (Мексика) (329 км)

Пояснения к столбцам:

Ветер - указаны скорость ветра в м/с - средняя за 10 мин, порывы в срок и между сроками (в фигурных скобках) и направление, откуда дует ветер: С - северный, СВ - северо-восточный, В - восточный, ЮВ - юго-восточный, Ю - южный, ЮЗ - юго-западный, З - западный, СЗ - северо-западный.
Видимость - горизонтальная дальность видимости в метрах или километрах. При видимости от 1 до 10 км при отсутствии осадков обычно наблюдается дымка, при ухудшении видимости до 1 км и менее - туман. В сухую погоду видимость может ухудшаться дымом, пылью или мглою.
Явления - указаны атмосферные явления, наблюдавшиеся в срок или в последний час перед сроком; фигурными скобками обозначены явления, наблюдавшиеся между сроками (за 1-3 часа до срока); квадратными скобками обозначены град или гололедные отложения с указанием их диаметра в мм.
Облачность - указаны через наклонную черту общая и нижняя облачность в баллах и высота нижней границы облаков в метрах; квадратными скобками обозначены формы облаков: Ci - перистые, Cs - перисто-слоистые, Cc - перисто-кучевые, Ac - высококучевые, As - высокослоистые, Sc - слоисто-кучевые, Ns - слоисто-дождевые, Cu - кучевые, Cb - кучево-дождевые. Подробнее классификацию облаков см. в Атласе облаков (PDF).
T - Температура воздуха - температура, измеренная на высоте 2 м над землей.
Td - Температура точки росы - температура, при понижении до которой содержащийся в воздухе водяной пар достигнет насыщения.
f - Относительная влажность воздуха - влажноcть воздуха, измеренная на высоте 2 м над землей.
Te - Эффективная температура - температура, которую ощущает одетый по сезону человек в тени. Характеристика душности погоды. При расчете учитывается влияние влажности воздуха и скорости ветра на теплоощущения человека.
Tes - Эффективная температура на солнце - температура, которую ощущает человек, с поправкой на солнечный нагрев. Характеристика знойности погоды. Зависит от высоты солнца над горизонтом, облачности и скорости ветра. Ночью, в пасмурную погоду, а также при ветре 12 м/с и более поправка равна нулю.
P - Атмосферное давление - приведенное к уровню моря атмосферное давление.
Po - Атмосферное давление - измеренное на уровне метеостанции атмосферное давление.
Tmin - Минимальная температура - минимум температуры воздуха на высоте 2 м над землей.
Tmax - Максимальная температура - максимум температуры воздуха на высоте 2 м над землей.
R - Количество осадков - Количество выпавших осадков за период времени, мм. При наведении курсора мыши на число - период времени, за который выпало указанное количество осадков.
R24 - Количество осадков - Количество выпавших осадков за 24 часа, мм.
S - Снежный покров - Высота снежного покрова, см. При наведении курсора мыши на число - состояние снежного покрова и степень покрытия местности в баллах.